Location: ?????????
(53.2086°N, 54.0693°E)
Time: 15:01:19
(UTC+00:00)

Okean O Rocket - Pass Details

Date: 08 December 2019
Orbit: 624 x 644 km, 98.2° (Epoch: 26 January)

Event Time Altitude Azimuth Distance (km) Brightness Sun altitude
Rises 12:55:37 0° 166° (SSE) 2,898 5.2 -6.9°
Reaches altitude 10° 12:57:48 10° 168° (SSE) 1,995 4.4 -7.2°
Maximum altitude 13:02:09 79° 256° (WSW) 643 1.8 -7.8°
Drops below altitude 10° 13:06:32 10° 343° (NNW) 2,011 4.1 -8.4°
Sets 13:08:44 0° 345° (NNW) 2,924 4.9 -8.7°
